�������l�o���
Date,Time,MP-1(��Sv/h),MP-2(��Sv/h),MP-3(��Sv/h),MP-4(��Sv/h),MP-5(��Sv/h),MP-6(��Sv/h),MP-7(��Sv/h),����,����(m/s),���J
2019/03/06,00:00,0.209,0.187,0.301,0.282,0.272,0.151,0.093,�쐼,3.8,��
2019/03/06,00:10,0.209,0.187,0.302,0.283,0.272,0.152,0.093,�쐼,4.0,��
2019/03/06,00:20,0.210,0.187,0.302,0.282,0.271,0.152,0.093,�쐼,4.7,��
2019/03/06,00:30,0.209,0.187,0.304,0.282,0.273,0.152,0.093,�쐼,5.0,��
2019/03/06,00:40,0.209,0.188,0.301,0.282,0.271,0.151,0.093,�쐼,5.3,��
2019/03/06,00:50,0.209,0.187,0.301,0.284,0.272,0.151,0.093,�쐼,5.5,��
2019/03/06,01:00,0.209,0.187,0.302,0.283,0.271,0.151,0.092,�쐼,4.7,��
2019/03/06,01:10,0.208,0.188,0.302,0.282,0.272,0.152,0.092,�쐼,4.4,��
2019/03/06,01:20,0.209,0.187,0.301,0.283,0.271,0.152,0.093,�쐼,4.5,��
2019/03/06,01:30,0.209,0.187,0.302,0.282,0.271,0.151,0.093,�쐼,4.6,��
2019/03/06,01:40,0.209,0.187,0.302,0.282,0.272,0.152,0.093,�쐼,4.0,��
2019/03/06,01:50,0.209,0.187,0.302,0.281,0.271,0.152,0.092,�쐼,3.9,��
2019/03/06,02:00,0.208,0.188,0.302,0.282,0.272,0.152,0.093,��쐼,2.9,��
2019/03/06,02:10,0.209,0.186,0.301,0.281,0.272,0.152,0.092,��쐼,2.0,��
2019/03/06,02:20,0.207,0.187,0.302,0.281,0.273,0.152,0.093,��쐼,1.7,��
2019/03/06,02:30,0.208,0.187,0.302,0.281,0.272,0.153,0.093,�쐼,2.2,��
2019/03/06,02:40,0.209,0.187,0.301,0.282,0.272,0.152,0.093,�쐼,2.9,��
2019/03/06,02:50,0.210,0.185,0.303,0.282,0.272,0.152,0.093,��쐼,4.6,��
2019/03/06,03:00,0.209,0.186,0.302,0.282,0.271,0.152,0.093,��쐼,5.7,��
2019/03/06,03:10,0.209,0.187,0.302,0.283,0.271,0.151,0.092,��,6.4,��
2019/03/06,03:20,0.210,0.187,0.302,0.283,0.273,0.151,0.093,��,6.3,��
2019/03/06,03:30,0.209,0.187,0.302,0.283,0.272,0.151,0.092,��,6.5,��
2019/03/06,03:40,0.208,0.187,0.303,0.282,0.271,0.151,0.092,��,6.0,��
2019/03/06,03:50,0.209,0.187,0.301,0.283,0.273,0.153,0.093,��,6.2,��
2019/03/06,04:00,0.209,0.187,0.302,0.282,0.272,0.152,0.092,��,6.0,��
2019/03/06,04:10,0.210,0.188,0.302,0.283,0.270,0.153,0.092,��,6.2,��
2019/03/06,04:20,0.209,0.187,0.301,0.281,0.273,0.152,0.092,��,6.6,��
2019/03/06,04:30,0.208,0.187,0.302,0.283,0.271,0.152,0.093,��,6.2,��
2019/03/06,04:40,0.210,0.186,0.301,0.282,0.271,0.153,0.092,��,5.9,��
2019/03/06,04:50,0.209,0.188,0.301,0.283,0.273,0.152,0.093,��쐼,6.0,��
2019/03/06,05:00,0.208,0.187,0.302,0.282,0.273,0.152,0.091,��쐼,5.2,��
2019/03/06,05:10,0.210,0.187,0.304,0.282,0.273,0.152,0.092,��쐼,4.9,��
2019/03/06,05:20,0.209,0.186,0.302,0.282,0.272,0.152,0.093,��쐼,6.0,��
2019/03/06,05:30,0.209,0.186,0.303,0.283,0.273,0.153,0.093,��쐼,4.6,��
2019/03/06,05:40,0.209,0.187,0.304,0.282,0.271,0.151,0.093,��쐼,3.4,��
2019/03/06,05:50,0.210,0.186,0.302,0.283,0.272,0.152,0.093,��쐼,3.8,��
2019/03/06,06:00,0.209,0.187,0.302,0.283,0.272,0.152,0.093,��쐼,5.1,��
2019/03/06,06:10,0.208,0.187,0.302,0.283,0.272,0.152,0.093,��쐼,5.8,��
2019/03/06,06:20,0.208,0.187,0.302,0.282,0.272,0.152,0.093,��쐼,5.9,��
2019/03/06,06:30,0.209,0.188,0.303,0.282,0.273,0.152,0.093,��쐼,6.8,��
2019/03/06,06:40,0.208,0.187,0.300,0.282,0.272,0.152,0.092,��쐼,7.0,��
2019/03/06,06:50,0.208,0.187,0.301,0.282,0.272,0.152,0.092,��쐼,6.7,��
2019/03/06,07:00,0.209,0.187,0.301,0.283,0.272,0.152,0.091,��쐼,6.3,��
2019/03/06,07:10,0.210,0.186,0.301,0.283,0.273,0.152,0.092,��쐼,6.6,��
2019/03/06,07:20,0.208,0.187,0.301,0.282,0.271,0.152,0.092,��쐼,7.0,��
2019/03/06,07:30,0.209,0.187,0.303,0.282,0.272,0.152,0.092,��쐼,6.1,��
2019/03/06,07:40,0.207,0.187,0.301,0.283,0.273,0.152,0.092,��,7.0,��
2019/03/06,07:50,0.210,0.188,0.300,0.282,0.271,0.152,0.092,��,6.1,��
2019/03/06,08:00,0.209,0.186,0.303,0.281,0.274,0.152,0.091,��,5.4,��
2019/03/06,08:10,0.208,0.187,0.301,0.281,0.272,0.151,0.092,��,6.3,��
2019/03/06,08:20,0.207,0.187,0.301,0.283,0.271,0.152,0.091,��쐼,6.8,��
2019/03/06,08:30,0.209,0.185,0.302,0.280,0.272,0.151,0.091,��쐼,7.0,��
2019/03/06,08:40,0.209,0.186,0.301,0.282,0.272,0.150,0.092,��쐼,7.8,��
2019/03/06,08:50,0.208,0.188,0.301,0.282,0.272,0.151,0.092,��쐼,7.5,��
2019/03/06,09:00,0.208,0.186,0.302,0.281,0.271,0.150,0.091,��쐼,7.0,��
2019/03/06,09:10,0.208,0.187,0.301,0.282,0.272,0.151,0.092,��쐼,6.1,��
2019/03/06,09:20,0.208,0.186,0.301,0.281,0.273,0.150,0.092,��쐼,7.3,��
2019/03/06,09:30,0.208,0.187,0.301,0.281,0.271,0.151,0.091,��쐼,8.2,��
2019/03/06,09:40,0.207,0.187,0.301,0.283,0.274,0.150,0.091,��쐼,7.3,��
2019/03/06,09:50,0.208,0.186,0.302,0.280,0.270,0.150,0.092,��,6.2,��
2019/03/06,10:00,0.207,0.186,0.299,0.283,0.272,0.149,0.092,��쐼,8.4,��
2019/03/06,10:10,0.208,0.186,0.302,0.281,0.271,0.151,0.092,��쐼,8.4,��
2019/03/06,10:20,0.207,0.187,0.301,0.281,0.273,0.152,0.091,��쐼,10.3,��
2019/03/06,10:30,0.208,0.186,0.299,0.283,0.273,0.151,0.092,��,7.6,��
2019/03/06,10:40,0.207,0.187,0.303,0.282,0.272,0.151,0.093,��쐼,7.4,��
2019/03/06,10:50,0.209,0.188,0.301,0.283,0.274,0.152,0.092,��쐼,9.2,��
2019/03/06,11:00,0.207,0.187,0.303,0.282,0.271,0.152,0.092,��,8.4,��
2019/03/06,11:10,0.208,0.187,0.300,0.282,0.273,0.151,0.092,��,7.7,��
2019/03/06,11:20,0.208,0.186,0.302,0.283,0.272,0.152,0.092,��,6.8,��
2019/03/06,11:30,0.208,0.187,0.302,0.281,0.274,0.151,0.092,��,7.7,��
2019/03/06,11:40,0.208,0.187,0.301,0.284,0.272,0.153,0.091,��,7.5,��
2019/03/06,11:50,0.208,0.186,0.301,0.280,0.273,0.152,0.092,��,10.3,��
2019/03/06,12:00,0.206,0.185,0.301,0.282,0.272,0.151,0.092,��,8.4,��
2019/03/06,12:10,0.208,0.187,0.301,0.280,0.271,0.151,0.092,��,8.1,��
2019/03/06,12:20,0.206,0.186,0.301,0.282,0.273,0.150,0.092,��,8.4,��
2019/03/06,12:30,0.207,0.187,0.299,0.282,0.269,0.152,0.091,��,6.1,��
2019/03/06,12:40,0.209,0.187,0.302,0.283,0.273,0.151,0.093,��쐼,7.4,��
2019/03/06,12:50,0.206,0.189,0.300,0.283,0.273,0.152,0.091,��,7.6,��
2019/03/06,13:00,0.208,0.186,0.299,0.281,0.270,0.151,0.092,��쐼,8.9,��
2019/03/06,13:10,0.209,0.187,0.303,0.282,0.273,0.152,0.091,��쐼,7.3,��
2019/03/06,13:20,0.207,0.188,0.300,0.282,0.271,0.153,0.092,��,7.6,��
2019/03/06,13:30,0.209,0.186,0.302,0.282,0.271,0.151,0.092,��쓌,8.1,��
2019/03/06,13:40,0.208,0.187,0.300,0.284,0.273,0.152,0.092,��쓌,8.8,��
2019/03/06,13:50,0.206,0.186,0.300,0.282,0.271,0.153,0.092,��쓌,8.3,��
2019/03/06,14:00,0.209,0.188,0.303,0.283,0.274,0.152,0.091,��쓌,6.7,��
2019/03/06,14:10,0.207,0.186,0.301,0.282,0.272,0.152,0.093,��쓌,8.2,��
2019/03/06,14:20,0.209,0.187,0.303,0.284,0.273,0.151,0.091,��쓌,9.0,��
2019/03/06,14:30,0.208,0.187,0.300,0.282,0.273,0.153,0.092,��쓌,8.2,��
2019/03/06,14:40,0.206,0.188,0.302,0.284,0.274,0.152,0.092,��쓌,7.8,��
2019/03/06,14:50,0.209,0.188,0.302,0.282,0.274,0.152,0.092,��쓌,7.3,��
2019/03/06,15:00,0.209,0.188,0.304,0.285,0.274,0.152,0.093,��,8.6,��
2019/03/06,15:10,0.210,0.187,0.303,0.282,0.273,0.153,0.092,��쓌,9.3,��
2019/03/06,15:20,0.209,0.187,0.303,0.283,0.274,0.152,0.092,��,8.3,��
2019/03/06,15:30,0.210,0.188,0.303,0.282,0.273,0.152,0.093,��,10.3,��
2019/03/06,15:40,0.208,0.187,0.304,0.283,0.275,0.151,0.092,��쓌,9.5,��
2019/03/06,15:50,0.210,0.187,0.303,0.283,0.272,0.153,0.093,��,10.4,��
2019/03/06,16:00,0.208,0.188,0.302,0.282,0.274,0.152,0.092,��쓌,8.4,��
2019/03/06,16:10,0.211,0.189,0.303,0.283,0.274,0.152,0.092,��,8.1,��
2019/03/06,16:20,0.209,0.187,0.303,0.282,0.275,0.153,0.092,��,8.2,��
2019/03/06,16:30,0.209,0.187,0.304,0.283,0.274,0.153,0.092,��,8.2,��
2019/03/06,16:40,0.209,0.187,0.303,0.284,0.274,0.153,0.092,��,7.7,��
2019/03/06,16:50,0.208,0.186,0.304,0.282,0.274,0.152,0.091,��,7.7,��
2019/03/06,17:00,0.210,0.188,0.304,0.282,0.273,0.153,0.092,��,7.8,��
2019/03/06,17:10,0.208,0.188,0.303,0.283,0.275,0.152,0.092,��,6.6,��
2019/03/06,17:20,0.210,0.189,0.303,0.283,0.273,0.153,0.092,��,6.7,��
2019/03/06,17:30,0.209,0.189,0.302,0.284,0.275,0.153,0.093,��,6.6,��
2019/03/06,17:40,0.209,0.186,0.303,0.284,0.273,0.153,0.091,��쐼,7.1,��
2019/03/06,17:50,0.210,0.187,0.303,0.285,0.276,0.152,0.092,��쐼,6.1,��
2019/03/06,18:00,0.209,0.188,0.303,0.284,0.274,0.151,0.093,��쐼,7.0,��
2019/03/06,18:10,0.210,0.187,0.304,0.282,0.273,0.152,0.092,��쐼,7.3,��
2019/03/06,18:20,0.209,0.187,0.303,0.283,0.274,0.153,0.092,�쐼,6.7,��
2019/03/06,18:30,0.208,0.188,0.303,0.282,0.273,0.152,0.093,-,CALM,��
2019/03/06,18:40,0.210,0.186,0.304,0.283,0.274,0.153,0.093,-,CALM,��
2019/03/06,18:50,0.209,0.188,0.301,0.285,0.274,0.154,0.092,-,CALM,��
2019/03/06,19:00,0.209,0.188,0.304,0.283,0.272,0.151,0.092,-,CALM,��
2019/03/06,19:10,0.209,0.187,0.303,0.284,0.275,0.154,0.092,-,CALM,��
2019/03/06,19:20,0.209,0.188,0.302,0.284,0.273,0.152,0.092,-,CALM,��
2019/03/06,19:30,0.210,0.187,0.303,0.283,0.274,0.152,0.092,-,CALM,��
2019/03/06,19:40,0.210,0.188,0.302,0.284,0.275,0.152,0.092,-,CALM,��
2019/03/06,19:50,0.208,0.188,0.305,0.282,0.272,0.154,0.092,-,CALM,��
2019/03/06,20:00,0.210,0.187,0.304,0.283,0.274,0.153,0.092,-,CALM,��
2019/03/06,20:10,0.208,0.189,0.302,0.284,0.273,0.153,0.092,-,CALM,��
2019/03/06,20:20,0.208,0.188,0.303,0.284,0.273,0.153,0.093,�쐼,4.2,��
2019/03/06,20:30,0.211,0.187,0.302,0.284,0.274,0.152,0.093,�쐼,4.3,��
2019/03/06,20:40,0.208,0.188,0.303,0.285,0.273,0.153,0.093,�쐼,2.6,��
2019/03/06,20:50,0.210,0.188,0.305,0.282,0.274,0.152,0.094,���쐼,1.5,��
2019/03/06,21:00,0.209,0.187,0.304,0.285,0.274,0.154,0.093,���쐼,2.5,��
2019/03/06,21:10,0.208,0.188,0.302,0.284,0.272,0.154,0.093,���쐼,3.9,��
2019/03/06,21:20,0.210,0.187,0.304,0.283,0.275,0.153,0.092,�쐼,3.2,��
2019/03/06,21:30,0.209,0.188,0.303,0.285,0.274,0.152,0.093,-,CALM,��
2019/03/06,21:40,0.210,0.188,0.303,0.284,0.273,0.153,0.092,�쐼,3.1,��
2019/03/06,21:50,0.210,0.188,0.304,0.284,0.274,0.153,0.093,���쐼,3.0,��
2019/03/06,22:00,0.208,0.188,0.302,0.287,0.274,0.153,0.093,���쐼,2.9,��
2019/03/06,22:10,0.210,0.188,0.304,0.284,0.275,0.153,0.093,���쐼,2.1,��
2019/03/06,22:20,0.209,0.188,0.304,0.284,0.273,0.153,0.092,���쐼,2.4,��
2019/03/06,22:30,0.208,0.189,0.303,0.285,0.273,0.152,0.093,���쐼,2.6,��
2019/03/06,22:40,0.211,0.188,0.305,0.284,0.274,0.152,0.093,-,CALM,��
2019/03/06,22:50,0.210,0.188,0.302,0.283,0.273,0.153,0.093,-,CALM,��
2019/03/06,23:00,0.210,0.188,0.302,0.284,0.273,0.153,0.092,-,CALM,��
2019/03/06,23:10,0.209,0.189,0.304,0.284,0.273,0.153,0.093,-,CALM,��
2019/03/06,23:20,0.208,0.188,0.303,0.284,0.274,0.153,0.093,�k�k��,2.2,��
2019/03/06,23:30,0.210,0.188,0.305,0.285,0.274,0.154,0.092,�k�k��,2.7,��
2019/03/06,23:40,0.210,0.188,0.303,0.284,0.274,0.153,0.094,�k��,2.1,��
2019/03/06,23:50,0.210,0.188,0.304,0.285,0.274,0.153,0.093,�k�k��,0.7,��
